DW7854 Weather Reports


time (UTC)temp
C
wind
direction
speed
KPH
gust
KPH
rain 1hr
cm
rain 24hr
cm
rain mn
cm
humidity
%
barometer
mb
20260904222306 37 166 4.8 9.7 0.00 0.00 0.00 45 1010.7
20260904221504 37 214 4.8 12.9 0.00 0.00 0.00 45 1010.4
20260904220110 37 178 8.0 11.3 0.00 0.00 0.00 44 1010.4
20260904215605 37 146 4.8 8.0 0.00 0.00 0.00 44 1010.8
20260904214705 37 168 4.8 9.7 0.00 0.00 0.00 41 1010.8
20260904214512 37 126 3.2 9.7 0.00 0.00 0.00 42 1010.5
20260904213805 37 176 8.0 12.9 0.00 0.00 0.00 43 1010.9
20260904213107 37 193 9.7 14.5 0.00 0.00 0.00 42 1010.7
20260904212905 38 164 4.8 11.3 0.00 0.00 0.00 43 1011.0
20260904212005 38 149 3.2 8.0 0.00 0.00 0.00 41 1011.1
20260904211510 37 120 3.2 11.3 0.00 0.00 0.00 42 1010.8
20260904211105 37 167 6.4 14.5 0.00 0.00 0.00 40 1011.2
20260904210205 37 110 3.2 11.3 0.00 0.00 0.00 42 1011.3
20260904210011 37 169 0.0 14.5 0.00 0.00 0.00 42 1011.0
20260904205306 38 168 4.8 14.5 0.00 0.00 0.00 43 1011.4
20260904204512 37 157 1.6 11.3 0.00 0.00 0.00 43 1011.2
20260904204405 37 153 4.8 9.7 0.00 0.00 0.00 43 1011.5
20260904203505 37 148 4.8 9.7 0.00 0.00 0.00 43 1011.6
20260904203007 37 154 4.8 17.7 0.00 0.00 0.00 44 1011.4
20260904202605 37 181 6.4 17.7 0.00 0.00 0.00 43 1011.8
20260904201609 36 216 3.2 12.9 0.00 0.00 0.00 46 1011.6
20260904200009 36 227 6.4 16.1 0.00 0.00 0.00 44 1011.9
20260904195905 37 159 6.4 16.1 0.00 0.00 0.00 46 1012.2
20260904195005 37 162 4.8 12.9 0.00 0.00 0.00 46 1012.3
20260904194504 37 208 4.8 12.9 0.00 0.00 0.00 46 1012.1
20260904194105 37 164 4.8 16.1 0.00 0.00 0.00 47 1012.4
20260904193205 37 174 8.0 16.1 0.00 0.00 0.00 46 1012.4
20260904193004 37 193 4.8 16.1 0.00 0.00 0.00 47 1012.2
20260904192306 37 157 6.4 16.1 0.00 0.00 0.00 47 1012.6
20260904191509 36 148 6.4 14.5 0.00 0.00 0.00 47 1012.4
20260904191405 37 140 6.4 14.5 0.00 0.00 0.00 47 1012.7
20260904190505 36 150 8.0 17.7 0.00 0.00 0.00 47 1012.7
20260904190110 36 225 4.8 20.9 0.00 0.00 0.00 49 1012.5
20260904185605 36 164 11.3 20.9 0.00 0.00 0.00 48 1012.8
20260904184705 36 176 6.4 20.9 0.00 0.00 0.00 50 1012.8
20260904184606 36 173 9.7 17.7 0.00 0.00 0.00 49 1012.5
20260904183805 36 169 6.4 16.1 0.00 0.00 0.00 48 1013.0
20260904183116 36 136 1.6 14.5 0.00 0.00 0.00 49 1012.8
20260904182005 36 151 8.0 16.1 0.00 0.00 0.00 50 1013.3
20260904181604 36 132 9.7 16.1 0.00 0.00 0.00 51 1013.1
20260904181105 36 142 6.4 14.5 0.00 0.00 0.00 50 1013.5
20260904180005 36 184 8.0 14.5 0.00 0.00 0.00 49 1013.3
20260904174511 35 144 3.2 19.3 0.00 0.00 0.00 52 1013.4
20260904173505 35 140 6.4 12.9 0.00 0.00 0.00 54 1013.9
20260904173107 35 87 8.0 14.5 0.00 0.00 0.00 52 1013.7
20260904172605 34 112 3.2 8.0 0.00 0.00 0.00 56 1014.0
20260904171705 35 188 6.4 14.5 0.00 0.00 0.00 53 1014.2
20260904171503 35 167 8.0 14.5 0.00 0.00 0.00 55 1013.9
20260904170805 35 188 6.4 11.3 0.00 0.00 0.00 55 1014.2
20260904170005 33 207 4.8 11.3 0.00 0.00 0.00 57 1014.0
20260904165905 34 219 3.2 11.3 0.00 0.00 0.00 58 1014.3
20260904165005 34 161 6.4 14.5 0.00 0.00 0.00 57 1014.5
20260904164506 34 163 4.8 14.5 0.00 0.00 0.00 58 1014.3
20260904163205 33 141 6.4 9.7 0.00 0.00 0.00 59 1014.5
20260904163109 33 128 4.8 9.7 0.00 0.00 0.00 59 1014.2
20260904162306 33 166 4.8 12.9 0.00 0.00 0.00 59 1014.5
20260904161505 32 103 3.2 9.7 0.00 0.00 0.00 61 1014.2
20260904161405 33 247 1.6 9.7 0.00 0.00 0.00 62 1014.4
20260904160505 32 205 3.2 8.0 0.00 0.00 0.00 63 1014.5
20260904160005 32 254 3.2 9.7 0.00 0.00 0.00 63 1014.2
20260904154705 32 124 3.2 6.4 0.00 0.00 0.00 65 1014.5
20260904154603 32 183 3.2 6.4 0.00 0.00 0.00 65 1014.3
20260904153805 32 165 4.8 9.7 0.00 0.00 0.00 65 1014.6
20260904153010 32 340 0.0 12.9 0.00 0.00 0.00 66 1014.4
20260904152005 32 156 4.8 11.3 0.00 0.00 0.00 67 1014.6
20260904151505 31 157 4.8 11.3 0.00 0.00 0.00 66 1014.4
20260904151105 31 154 3.2 9.7 0.00 0.00 0.00 67 1014.7
20260904150022 31 189 4.8 9.7 0.00 0.00 0.00 70 1014.4
20260904145306 30 170 3.2 8.0 0.00 0.00 0.00 72 1014.7
20260904144605 30 251 1.6 6.4 0.00 0.00 0.00 74 1014.4
20260904144405 30 283 3.2 8.0 0.00 0.00 0.00 74 1014.7
20260904143505 29 315 3.2 8.0 0.00 0.00 0.00 75 1014.7
20260904143006 28 351 3.2 6.4 0.00 0.00 0.00 75 1014.4
20260904141705 28 120 1.6 4.8 0.00 0.00 0.00 79 1014.6
20260904141604 28 164 1.6 4.8 0.00 0.00 0.00 79 1014.3
20260904140805 28 331 1.6 4.8 0.00 0.00 0.00 80 1014.5
20260904140109 27 282 0.0 4.8 0.00 0.00 0.00 82 1014.3
20260904135905 27 320 1.6 4.8 0.00 0.00 0.00 82 1014.5
20260904134606 26 199 0.0 4.8 0.00 0.00 0.00 85 1014.2
20260904134105 26 174 1.6 4.8 0.00 0.00 0.00 88 1014.5
20260904133205 25 158 1.6 4.8 0.00 0.00 0.00 90 1014.4
20260904133004 25 171 1.6 4.8 0.00 0.00 0.00 91 1014.1
20260904132306 25 0 0.0 0.0 0.00 0.00 0.00 93 1014.4
20260904131606 24 27 0.0 1.6 0.00 0.00 0.00 93 1014.0
20260904131405 24 27 0.0 1.6 0.00 0.00 0.00 93 1014.3
20260904130005 23 27 0.0 1.6 0.00 0.00 0.00 94 1013.9
20260904125604 23 0 0.0 0.0 0.00 0.00 0.00 94 1014.1
20260904124705 23 0 0.0 0.0 0.00 0.00 0.00 94 1014.0
20260904124506 22 27 0.0 0.0 0.00 0.00 0.00 94 1013.8
20260904123805 23 0 0.0 0.0 0.00 0.00 0.00 94 1014.0
20260904123106 22 27 0.0 1.6 0.00 0.00 0.00 93 1013.6
20260904122905 23 27 0.0 1.6 0.00 0.00 0.00 93 1013.8
20260904122005 23 0 0.0 0.0 0.00 0.00 0.00 93 1013.8
20260904121508 22 27 0.0 1.6 0.00 0.00 0.00 93 1013.5
20260904120009 22 27 0.0 0.0 0.00 0.00 0.00 93 1013.3
20260904115306 23 27 0.0 1.6 0.00 0.00 0.00 93 1013.6
20260904114504 22 27 0.0 1.6 0.00 0.00 0.00 93 1013.3
20260904114404 23 25 0.0 1.6 0.00 0.00 0.00 93 1013.6
20260904113505 23 0 0.0 0.0 0.00 0.00 0.00 92 1013.7
20260904113005 23 156 0.0 0.0 0.00 0.00 0.00 92 1013.4
20260904112605 23 0 0.0 0.0 0.00 0.00 0.00 92 1013.7
20260904111705 23 0 0.0 0.0 0.00 0.00 0.00 92 1013.6
20260904110804 23 0 0.0 0.0 0.00 0.00 0.00 92 1013.6
20260904110104 23 156 0.0 0.0 0.00 0.00 0.00 92 1013.3
20260904105905 23 0 0.0 0.0 0.00 0.00 0.00 92 1013.6
20260904105005 23 0 0.0 0.0 0.00 0.00 0.00 92 1013.6
20260904104606 23 156 0.0 0.0 0.00 0.00 0.00 92 1013.4
20260904104104 23 0 0.0 0.0 0.00 0.00 0.00 92 1013.7
20260904103205 23 0 0.0 0.0 0.00 0.00 0.00 92 1013.5
20260904103005 23 156 0.0 0.0 0.00 0.00 0.00 92 1013.2
20260904102306 23 0 0.0 0.0 0.00 0.00 0.00 92 1013.4
20260904101505 23 156 0.0 0.0 0.00 0.00 0.00 92 1013.1
20260904101404 23 0 0.0 0.0 0.00 0.00 0.00 92 1013.4
20260904100504 23 0 0.0 0.0 0.00 0.00 0.00 91 1013.4
20260904100104 23 156 0.0 0.0 0.00 0.00 0.00 91 1013.2
20260904095605 23 0 0.0 0.0 0.00 0.00 0.00 91 1013.4
20260904094704 23 0 0.0 0.0 0.00 0.00 0.00 91 1013.3
20260904094503 23 156 0.0 0.0 0.00 0.00 0.00 91 1012.9
20260904093804 23 0 0.0 0.0 0.00 0.00 0.00 91 1013.0
20260904093110 23 156 0.0 0.0 0.00 0.00 0.00 91 1012.7
20260904092905 23 0 0.0 0.0 0.00 0.00 0.00 90 1013.0
20260904092004 23 0 0.0 0.0 0.00 0.00 0.00 91 1012.8
20260904091505 23 156 0.0 0.0 0.00 0.00 0.00 90 1012.6
20260904090005 23 156 0.0 0.0 0.00 0.00 0.00 90 1012.4
20260904085306 23 0 0.0 0.0 0.00 0.00 0.00 90 1012.6
20260904084604 23 156 0.0 0.0 0.00 0.00 0.00 90 1012.4
20260904083505 23 0 0.0 0.0 0.00 0.00 0.00 90 1012.5
20260904083004 23 156 0.0 0.0 0.00 0.00 0.00 90 1012.3
20260904081705 23 0 0.0 0.0 0.00 0.00 0.00 90 1012.5
20260904081603 23 156 0.0 0.0 0.00 0.00 0.00 90 1012.3
20260904080805 23 0 0.0 0.0 0.00 0.00 0.00 89 1012.6
20260904080011 23 156 0.0 0.0 0.00 0.00 0.00 89 1012.3
20260904075905 24 0 0.0 0.0 0.00 0.00 0.00 89 1012.6
20260904075004 24 0 0.0 0.0 0.00 0.00 0.00 89 1012.5
20260904074506 23 156 0.0 0.0 0.00 0.00 0.00 89 1012.3
20260904074105 24 0 0.0 0.0 0.00 0.00 0.00 89 1012.5
20260904073204 24 0 0.0 0.0 0.00 0.00 0.00 88 1012.5
20260904073106 23 156 0.0 0.0 0.00 0.00 0.00 88 1012.2
20260904071604 24 156 0.0 0.0 0.00 0.00 0.00 88 1012.2
20260904071404 24 0 0.0 0.0 0.00 0.00 0.00 88 1012.5
20260904070504 24 0 0.0 0.0 0.00 0.00 0.00 88 1012.5
20260904070012 24 156 0.0 0.0 0.00 0.00 0.00 87 1012.3
20260904064704 24 0 0.0 0.0 0.00 0.00 0.00 87 1012.6
20260904064604 24 156 0.0 0.0 0.00 0.00 0.00 87 1012.2
20260904063804 25 0 0.0 0.0 0.00 0.00 0.00 87 1012.5
20260904063105 24 156 0.0 0.0 0.00 0.00 0.00 86 1012.3
20260904062904 25 0 0.0 0.0 0.00 0.00 0.00 86 1012.5
20260904062004 25 0 0.0 0.0 0.00 0.00 0.00 86 1012.6
20260904061603 25 156 0.0 0.0 0.00 0.00 0.00 86 1012.3
20260904061104 25 0 0.0 0.0 0.00 0.00 0.00 85 1012.6
20260904060204 25 0 0.0 0.0 0.00 0.00 0.00 85 1012.5
20260904060004 25 156 0.0 0.0 0.00 0.00 0.00 85 1012.2
20260904055306 25 0 0.0 0.0 0.00 0.00 0.00 85 1012.5
20260904054515 25 156 0.0 0.0 0.00 0.00 0.00 84 1012.2
20260904053504 25 0 0.0 0.0 0.00 0.00 0.00 84 1012.4
20260904053106 25 156 0.0 0.0 0.00 0.00 0.00 84 1012.1
20260904052604 26 0 0.0 0.0 0.00 0.00 0.00 83 1012.4
20260904051705 26 0 0.0 0.0 0.00 0.00 0.00 83 1012.3
20260904051625 25 156 0.0 0.0 0.00 0.00 0.00 83 1012.0
20260904050109 26 156 0.0 0.0 0.00 0.00 0.00 81 1011.9
20260904045904 26 0 0.0 0.0 0.00 0.00 0.00 81 1012.2
20260904045004 26 0 0.0 0.0 0.00 0.00 0.00 80 1012.2
20260904044508 26 156 0.0 0.0 0.00 0.00 0.00 80 1011.9
20260904044105 26 0 0.0 0.0 0.00 0.00 0.00 80 1012.1
20260904043204 27 0 0.0 0.0 0.00 0.00 0.00 79 1012.2
20260904043005 27 156 0.0 0.0 0.00 0.00 0.00 79 1011.9
20260904042306 27 0 0.0 0.0 0.00 0.00 0.00 78 1012.2
20260904041504 27 156 0.0 0.0 0.00 0.00 0.00 77 1011.9
20260904041404 27 0 0.0 0.0 0.00 0.00 0.00 77 1012.1
20260904040504 27 0 0.0 0.0 0.00 0.00 0.00 77 1012.1
20260904040103 27 156 0.0 0.0 0.00 0.00 0.00 76 1011.9
20260904035604 27 0 0.0 0.0 0.00 0.00 0.00 76 1012.2
20260904034705 28 0 0.0 0.0 0.00 0.00 0.00 75 1012.1
20260904034505 27 156 0.0 0.0 0.00 0.00 0.00 75 1011.8
20260904033804 28 0 0.0 0.0 0.00 0.00 0.00 75 1012.1
20260904033105 28 156 0.0 0.0 0.00 0.00 0.00 74 1011.8
20260904032904 28 0 0.0 0.0 0.00 0.00 0.00 73 1012.1
20260904032004 28 156 0.0 1.6 0.00 0.00 0.00 73 1012.1
20260904031508 28 156 0.0 0.0 0.00 0.00 0.00 72 1011.9
20260904031104 29 0 0.0 0.0 0.00 0.00 0.00 72 1012.2
20260904030204 29 156 0.0 1.6 0.00 0.00 0.00 70 1012.3
20260904030109 29 156 0.0 1.6 0.00 0.00 0.00 70 1012.0
20260904024611 29 156 0.0 3.2 0.00 0.00 0.00 70 1011.9
20260904024404 30 155 1.6 3.2 0.00 0.00 0.00 70 1012.2
20260904023504 30 155 1.6 4.8 0.00 0.00 0.00 69 1012.0
20260904023107 29 156 0.0 3.2 0.00 0.00 0.00 69 1011.6
20260904022604 30 156 0.0 1.6 0.00 0.00 0.00 69 1011.9
20260904021704 30 156 0.0 6.4 0.00 0.00 0.00 68 1011.7
20260904021605 30 156 0.0 6.4 0.00 0.00 0.00 67 1011.4
20260904020004 30 156 1.6 6.4 0.00 0.00 0.00 67 1011.2
20260904015904 30 155 3.2 6.4 0.00 0.00 0.00 67 1011.5
20260904014616 30 141 3.2 6.4 0.00 0.00 0.00 66 1011.0
20260904014104 31 159 4.8 6.4 0.00 0.00 0.00 65 1011.2
20260904013204 31 149 4.8 9.7 0.00 0.00 0.00 64 1011.1
20260904013107 31 139 3.2 9.7 0.00 0.00 0.00 64 1010.7
20260904012306 31 146 4.8 11.3 0.00 0.00 0.00 64 1010.9
20260904011603 31 147 1.6 8.0 0.00 0.00 0.00 63 1010.6
20260904011404 31 148 4.8 8.0 0.00 0.00 0.00 63 1010.9
20260904010504 31 154 3.2 8.0 0.00 0.00 0.00 62 1010.8
20260904010004 32 158 1.6 6.4 0.00 0.00 0.00 61 1010.4
20260904005604 32 132 1.6 4.8 0.00 0.00 0.00 61 1010.5
20260904004704 32 148 3.2 4.8 0.00 0.00 0.00 60 1010.6
20260904004505 32 132 1.6 4.8 0.00 0.00 0.00 60 1010.3
20260904003804 32 150 3.2 6.4 0.00 0.00 0.00 59 1010.6
20260904003105 32 150 1.6 8.0 0.00 0.00 0.00 59 1010.2
20260904002904 33 151 3.2 6.4 0.00 0.00 0.00 59 1010.5
20260904002004 33 149 4.8 8.0 0.00 0.00 0.00 58 1010.5
20260904001104 33 147 4.8 8.0 0.00 0.00 0.00 57 1010.5
20260904000204 33 146 6.4 9.7 0.00 0.00 0.00 56 1010.4
20260904000104 33 163 4.8 9.7 0.00 0.00 0.00 56 1010.2
20260903235305 33 157 6.4 11.3 0.00 0.00 0.00 56 1010.4
20260903234614 33 155 6.4 16.1 0.00 0.00 0.00 55 1010.2
20260903234404 34 142 6.4 12.9 0.00 0.00 0.00 54 1010.5
20260903233504 34 121 8.0 14.5 0.00 0.00 0.00 53 1010.5
20260903233003 34 87 8.0 16.1 0.00 0.00 0.00 53 1010.3
20260903232604 35 125 4.8 16.1 0.00 0.00 0.00 52 1010.5
20260903231704 35 145 6.4 11.3 0.00 0.00 0.00 52 1010.5
20260903231508 35 181 4.8 12.9 0.00 0.00 0.00 52 1010.2
20260903230804 35 150 8.0 17.7 0.00 0.00 0.00 51 1010.5
20260903230107 35 105 8.0 17.7 0.00 0.00 0.00 51 1010.2
20260903225904 35 139 8.0 17.7 0.00 0.00 0.00 50 1010.5
20260903225004 35 149 9.7 16.1 0.00 0.00 0.00 50 1010.5
20260903224604 35 161 9.7 16.1 0.00 0.00 0.00 50 1010.3
20260903224104 35 138 6.4 16.1 0.00 0.00 0.00 49 1010.5
20260903223204 35 128 8.0 14.5 0.00 0.00 0.00 50 1010.5
20260903223104 35 130 4.8 14.5 0.00 0.00 0.00 50 1010.3